Showing default

DRAGON ENDURANCE 4, 63204

Orbit data source: Space-Track

DRAGON ENDURANCE 4, 63204 is a payload satellite owned by SpaceX (US) in LEO that was launched on Fri, 14 Mar 2025 UTC via an FALCON 9 launch vehicle from the Air Force Eastern Test Range (AFETR). Payload-class satellites include a variety of spacecraft equipped with specific instruments for various scientific and technological missions. These include communications satellites like Starlink; space stations such as the ISS; scientific satellites like the Hubble; Earth observation satellites from companies like Planet Labs, Umbra, and HawkEye 360; GPS; miniature CubeSats for education and research; and military/defense satellites.

Loading next visibility...
Identifier
63204, 2025-049A
Orbit
LEO
Last TLE update
2 days ago
Origin
Manufacturer
SpaceX
Mission
Operational spacecraft
Bus & Motor
DRAGON CM, Unknown motor
Mass
~13,055 kg wet, ~9,500 kg dry
Launch date (UTC)
2025-03-14 (2 months ago)
Launch vehicle
FALCON 9
Launch site
Air Force Eastern Test Range (AFETR)
Object type
Payload
Rocket body
Debris
Shape & HBR
Unknown
Radar Cross Section
RCS unknown

Expand to show TLE details & history

TLE from 2 days ago
0 DRAGON ENDURANCE 4
1 63204U 25049A   25118.69904601  .00018272  00000-0  33462-3 0  9998
2 63204  51.6381 192.1629 0002672  81.2921  56.6448 15.49375691  6257
Epoch: 2025-04-28T16:46Z
Definitive object data (Epoch: 2025-04-28T16:46:37.575Z)
Latitude
31.77594°
Longitude
-125.5836°
Altitude
419.381 km
Speed
7.664 km/s
True Right ascension
22h 51m 55s
True Declination
31° 36' 52"
Sunlit
Object was in daylight at TLE epoch
Visualization TLE readout
Latitude
50.48235°
Longitude
147.62353°
Altitude
422.325 km
Speed
7.665 km/s
Apparent Right ascension
09h 29m 06s
Apparent Declination
45° 45' 29"
Sunlit
Object is in daylight
Visualization observer readout
Local Sidereal Time
17:53:06
Azimuth
325.215° NNW
Elevation
8.347°
Doppler factor
1
Orbital elements
Apogee altitude
420.876 km
Perigee altitude
417.243 km
Semi-major axis
6,797.196 km
Eccentricity
0.0002672
Inclination
51.6381°
RAAN
192.1629°
Arg. of periapsis
81.2921°
True anomaly
56.67038°
Mean anomaly
56.6448°
Eccentric anomaly
56.65759°
Mean motion
3.87301 °/min
BSTAR
0.00033462
Orbital period
92.95 mins
Loading maneuver chart data...
Loading SW <> Apogee altitude chart data...
Loading historical data...
Loading historical data...
Loading historical data...
Loading historical data...
Loading historical data...
Loading historical data...
Loading historical data...
Other satellites on launch #49 in the year 2025 (2025-03-14 UTC)

DRAGON ENDURANCE 4 Visibility forecast

Observer location: undefined°, undefined°

Span
Click to sort rows by Start time (UTC) header in descending order
Start Az.
Max El. time (UTC)
Max El. Az.
Max El.
End time (UTC)
End Az.
5 mins2025-04-30 13:34:06.713Z317.507° NNW2025-04-30 13:36:06.713Z31.446° NE41.901°2025-04-30 13:39:06.713Z116.966° SE
4 mins2025-05-01 06:17:06.713Z176.215° S2025-05-01 06:18:06.713Z148.498° SSE25.203°2025-05-01 06:21:06.713Z75.511° E
4 mins2025-05-01 07:54:06.713Z291.99° WNW2025-05-01 07:55:06.713Z326.273° NNW28.192°2025-05-01 07:58:06.713Z36.215° NE
|